Location: Ferchesar
(52.6477°N, 12.4298°E)
Time: 15:17:21
(UTC+01:00)

deb Explorer IX - Pass Details

Date: 14 December 2021
Orbit: 544 x 1082 km, 38.8° (Epoch: 18 January)

Event Time Altitude Azimuth Distance (km) Brightness Sun altitude
Rises 06:57:02 0° 226° (SW) 3,642 ? -10.8°
Reaches altitude 10° 07:00:41 10° 209° (SSW) 2,593 ? -10.3°
Maximum altitude 07:04:34 17° 169° (S) 1,992 ? -9.8°
Drops below altitude 10° 07:08:08 10° 129° (SE) 2,349 ? -9.3°
Sets 07:11:13 0° 110° (ESE) 3,166 ? -8.9°
